Date String (YYYY-MM-DD hh:mm:ss) UTC,Instrument flags,Ambient pressure (hPa),Sample flow (lpm),Bypass flow (lpm),Sample temperature (°C),Ambient temperature (°C),ASC tube jacket temperature (°C),LED temperature (°C),Box temperature (°C),Sample RH (%),Mass concentration (μg/m³),Mass concentration (μg/m³)
DateTimeUTC,F1_M11,P_M11,Q1_M11,Q2_M11,T1_M11,T2_M11,T3_M11,T4_M11,T5_M11,U1_M11,X0_M11,X2_M11
2021-08-12 17:00:00,FlowAlarm;OPCInstrumentWarning,0833.5,4.99,0.00,29.2,28.3,00.0,38.3,31.3,24.0,0040.73,0030.66
2021-08-12 17:01:00,FlowAlarm;OPCInstrumentWarning,0833.5,5.01,0.00,29.3,28.2,00.0,38.3,31.3,24.2,0041.84,0030.65
2021-08-12 17:02:00,FlowAlarm;OPCInstrumentWarning,0833.6,4.99,0.00,29.2,26.8,00.0,38.3,30.9,23.9,0041.77,0030.56
2021-08-12 17:03:00,FlowAlarm;OPCInstrumentWarning,0833.5,5.01,0.00,29.1,25.9,00.0,38.3,30.7,23.9,0041.32,0030.50
2021-08-12 17:04:00,FlowAlarm;OPCInstrumentWarning,0833.5,4.99,0.00,29.0,26.2,00.0,38.3,30.7,23.8,0041.03,0030.35
2021-08-12 17:05:00,FlowAlarm;OPCInstrumentWarning,0833.5,5.00,0.00,29.0,26.6,00.0,38.2,30.8,24.0,0040.97,0030.23
2021-08-12 17:06:00,FlowAlarm;OPCInstrumentWarning,0833.5,5.01,0.00,29.0,27.0,00.0,38.2,30.9,24.0,0040.26,0030.07
2021-08-12 17:07:00,FlowAlarm;OPCInstrumentWarning,0833.5,4.99,0.00,29.0,27.4,00.0,38.2,31.0,24.4,0039.51,0030.01
2021-08-12 17:08:00,FlowAlarm;OPCInstrumentWarning,0833.5,4.98,0.00,29.0,27.7,00.0,38.2,31.1,24.2,0038.25,0029.91
2021-08-12 17:09:00,FlowAlarm;OPCInstrumentWarning,0833.5,5.01,0.00,29.1,28.0,00.0,38.2,31.1,24.1,0038.21,0029.83
2021-08-12 17:10:00,FlowAlarm;OPCInstrumentWarning,0833.5,4.99,0.00,29.1,28.2,00.0,38.2,31.2,24.0,0038.83,0029.75
2021-08-12 17:11:00,FlowAlarm;OPCInstrumentWarning,0833.5,5.01,0.00,29.2,28.3,00.0,38.3,31.2,23.8,0038.92,0029.64
2021-08-12 17:12:00,FlowAlarm;OPCInstrumentWarning,0833.6,5.01,0.00,29.2,26.9,00.0,38.2,30.9,23.6,0037.86,0029.57
2021-08-12 17:13:00,FlowAlarm;OPCInstrumentWarning,0833.5,5.00,0.00,29.1,25.7,00.0,38.2,30.7,23.5,0037.75,0029.49
2021-08-12 17:14:00,FlowAlarm;OPCInstrumentWarning,0833.5,5.00,0.00,29.0,26.0,00.0,38.2,30.7,23.6,0037.34,0029.45
2021-08-12 17:15:00,FlowAlarm;OPCInstrumentWarning,0833.6,5.01,0.00,28.9,26.4,00.0,38.2,30.7,23.8,0037.34,0029.41
2021-08-12 17:16:00,FlowAlarm;OPCInstrumentWarning,0833.5,4.99,0.00,28.9,26.8,00.0,38.2,30.8,23.8,0037.71,0029.40
2021-08-12 17:17:00,FlowAlarm;OPCInstrumentWarning,0833.6,5.00,0.00,28.9,27.3,00.0,38.1,30.9,23.8,0038.32,0029.44
2021-08-12 17:18:00,FlowAlarm;OPCInstrumentWarning,0833.5,4.99,0.00,29.0,27.6,00.0,38.1,31.0,24.2,0039.00,0029.41
2021-08-12 17:19:00,FlowAlarm;OPCInstrumentWarning,0833.5,5.02,0.00,29.0,27.9,00.0,38.2,31.1,23.8,0039.61,0029.38
2021-08-12 17:20:00,FlowAlarm;OPCInstrumentWarning,0833.5,4.99,0.00,29.1,28.1,00.0,38.2,31.2,23.6,0040.11,0029.39
2021-08-12 17:21:00,FlowAlarm;OPCInstrumentWarning,0833.6,5.01,0.00,29.2,28.3,00.0,38.2,31.2,23.1,0039.54,0029.42
2021-08-12 17:22:00,FlowAlarm;OPCInstrumentWarning,0833.6,4.99,0.00,29.2,28.0,00.0,38.2,31.1,23.3,0039.79,0029.41
2021-08-12 17:23:00,FlowAlarm;OPCInstrumentWarning,0833.5,5.00,0.00,29.1,26.3,00.0,38.2,30.8,23.2,0041.56,0029.31
2021-08-12 17:24:00,FlowAlarm;OPCInstrumentWarning,0833.5,5.00,0.00,29.0,25.8,00.0,38.2,30.6,24.0,0041.57,0029.30
2021-08-12 17:25:00,FlowAlarm;OPCInstrumentWarning,0833.5,5.01,0.00,28.9,26.2,00.0,38.2,30.7,23.6,0041.37,0029.31
2021-08-12 17:26:00,FlowAlarm;OPCInstrumentWarning,0833.6,4.99,0.00,28.9,26.6,00.0,38.1,30.7,24.6,0040.42,0029.30
2021-08-12 17:27:00,FlowAlarm;OPCInstrumentWarning,0833.6,5.02,0.00,28.9,27.0,00.0,38.1,30.8,24.1,0040.43,0029.31
2021-08-12 17:28:00,FlowAlarm;OPCInstrumentWarning,0833.5,4.99,0.00,28.9,27.4,00.0,38.1,30.9,24.1,0039.80,0029.25
2021-08-12 17:29:00,FlowAlarm;OPCInstrumentWarning,0833.5,4.99,0.00,29.0,27.8,00.0,38.1,31.0,24.2,0039.85,0029.22
2021-08-12 17:30:00,FlowAlarm;OPCInstrumentWarning,0833.6,5.00,0.00,29.0,28.0,00.0,38.1,31.1,24.2,0040.14,0029.21
2021-08-12 17:31:00,FlowAlarm;OPCInstrumentWarning,0833.5,5.01,0.00,29.1,28.3,00.0,38.2,31.2,23.9,0039.73,0029.17
2021-08-12 17:32:00,FlowAlarm;OPCInstrumentWarning,0833.6,4.99,0.00,29.2,28.1,00.0,38.2,31.1,24.2,0039.88,0029.14
2021-08-12 17:33:00,FlowAlarm;OPCInstrumentWarning,0833.6,4.99,0.00,29.1,26.6,00.0,38.2,30.8,23.6,0039.03,0029.13
2021-08-12 17:34:00,FlowAlarm;OPCInstrumentWarning,0833.6,5.01,0.00,29.0,25.8,00.0,38.1,30.6,23.7,0037.23,0029.15
2021-08-12 17:35:00,FlowAlarm;OPCInstrumentWarning,0833.6,5.00,0.00,28.9,26.1,00.0,38.1,30.6,24.5,0037.24,0029.10
2021-08-12 17:36:00,FlowAlarm;OPCInstrumentWarning,0833.6,5.00,0.00,28.8,26.5,00.0,38.1,30.7,24.2,0037.60,0029.07
2021-08-12 17:37:00,FlowAlarm;OPCInstrumentWarning,0833.5,4.99,0.00,28.8,26.9,00.0,38.1,30.8,23.9,0037.91,0029.03
2021-08-12 17:38:00,FlowAlarm;OPCInstrumentWarning,0833.5,5.00,0.00,28.9,27.3,00.0,38.1,30.9,24.0,0037.00,0028.98
2021-08-12 17:39:00,FlowAlarm;OPCInstrumentWarning,0833.6,5.00,0.00,28.9,27.6,00.0,38.1,31.0,24.3,0037.02,0028.99
2021-08-12 17:40:00,FlowAlarm;OPCInstrumentWarning,0833.6,5.00,0.00,29.0,27.9,00.0,38.1,31.1,24.6,0036.25,0028.99
2021-08-12 17:41:00,FlowAlarm;OPCInstrumentWarning,0833.5,5.01,0.00,29.1,28.2,00.0,38.1,31.1,24.4,0035.44,0028.96
2021-08-12 17:42:00,FlowAlarm;OPCInstrumentWarning,0833.6,5.00,0.00,29.1,28.1,00.0,38.1,31.1,24.2,0035.26,0028.94
2021-08-12 17:43:00,FlowAlarm;OPCInstrumentWarning,0833.5,5.00,0.00,29.1,26.8,00.0,38.1,30.7,24.6,0035.20,0028.85
2021-08-12 17:44:00,FlowAlarm;OPCInstrumentWarning,0833.5,4.99,0.00,28.9,25.8,00.0,38.1,30.5,24.1,0035.72,0028.79
2021-08-12 17:45:00,FlowAlarm;OPCInstrumentWarning,0833.5,4.99,0.00,28.8,26.1,00.0,38.1,30.5,24.5,0036.15,0028.77
2021-08-12 17:46:00,FlowAlarm;OPCInstrumentWarning,0833.5,5.01,0.00,28.8,26.5,00.0,38.1,30.6,24.4,0036.12,0028.80
2021-08-12 17:47:00,FlowAlarm;OPCInstrumentWarning,0833.5,4.99,0.00,28.8,26.9,00.0,38.1,30.7,24.6,0036.78,0028.83
2021-08-12 17:48:00,FlowAlarm;OPCInstrumentWarning,0833.5,5.01,0.00,28.8,27.3,00.0,38.0,30.8,24.5,0037.75,0028.84
2021-08-12 17:49:00,FlowAlarm;OPCInstrumentWarning,0833.6,5.00,0.00,28.9,27.7,00.0,38.1,31.0,24.7,0037.94,0028.83
2021-08-12 17:50:00,FlowAlarm;OPCInstrumentWarning,0833.5,4.98,0.00,28.9,28.0,00.0,38.1,31.1,25.3,0037.98,0028.80
2021-08-12 17:51:00,FlowAlarm;OPCInstrumentWarning,0833.5,5.01,0.00,29.0,28.2,00.0,38.1,31.1,24.9,0038.32,0028.82
2021-08-12 17:52:00,FlowAlarm;OPCInstrumentWarning,0833.6,5.00,0.00,29.1,28.2,00.0,38.1,31.1,24.3,0038.52,0028.86
2021-08-12 17:53:00,FlowAlarm;OPCInstrumentWarning,0833.6,5.00,0.00,29.1,27.0,00.0,38.1,30.8,24.7,0038.36,0028.82
2021-08-12 17:54:00,FlowAlarm;OPCInstrumentWarning,0833.6,5.00,0.00,28.9,25.8,00.0,38.1,30.6,24.5,0037.93,0028.81
2021-08-12 17:55:00,FlowAlarm;OPCInstrumentWarning,0833.5,5.01,0.00,28.9,26.1,00.0,38.1,30.6,24.1,0037.52,0028.79
2021-08-12 17:56:00,FlowAlarm;OPCInstrumentWarning,0833.5,4.99,0.00,28.8,26.5,00.0,38.1,30.7,24.1,0036.73,0028.78
2021-08-12 17:57:00,FlowAlarm;OPCInstrumentWarning,0833.5,4.98,0.00,28.8,26.9,00.0,38.0,30.7,24.4,0037.02,0028.74
2021-08-12 17:58:00,FlowAlarm;OPCInstrumentWarning,0833.5,5.01,0.00,28.9,27.3,00.0,38.0,30.9,24.1,0037.10,0028.68
2021-08-12 17:59:00,FlowAlarm;OPCInstrumentWarning,0833.6,4.99,0.00,28.9,27.7,00.0,38.0,31.0,24.5,0035.81,0028.58
